www.pogodaiklimat.ru

Погода и климат >> Архив погоды >> Таиланд >> Пхитсанулок


ПОГОДА в Пхитсанулоке

  • Прогноз погоды в Пхитсанулоке
  • Монитор погоды в Пхитсанулоке

АРХИВ ПОГОДЫ в Пхитсанулоке

Время (UTC), дата Ветер
(напр.,м/с)
 
Видим.   Явления Облачность Т
(С)
Тd
(С)
f
(%)
Тe
(С)
Тes
(С)
Комфортность P
(гПа)
Po
(гПа)
Тmin
(С)
Tmax
(С)
R
(мм)
R24
(мм)
S
(см)
18 14.05 штиль 0 7000 м дымка {дождь} 10/5 600 м
[Sc Ac As Cs]
+25.0 +23.5 91 +34 +34 очень
душно
1008.0 1002.7 0.0
21 14.05 ЮЗ 3 7000 м дымка 10/5 600 м
[Sc Ac As Cs]
+25.0 +24.3 96 +35 +35 очень
душно
1007.2 1001.9
00 15.05 Ю 3 6000 м дымка 8/3 300 м
[Sc Ac lent Cs]
+25.0 +24.3 96 +35 +35 очень
душно
1008.9 1003.6 +24.3
03 15.05 ЮЗ 3 10 км 6/3 600 м
[Cu hum Ac lent Cs]
+29.7 +25.2 77 +43 +50 опасность
перегрева
1009.9 1004.7
06 15.05 Ю 3 10 км 6/3 600 м
[Cu hum Ac lent Cs]
+33.6 +16.4 36 +36 +46 очень
душно
1007.3 1002.2
09 15.05 Ю 5 10 км 4/1 600 м
[Cu med, cong Ac lent Cs]
+35.0 +23.1 50 +45 +48 опасность
перегрева
1004.1 999.1
12 15.05 З 17 5000 м осадки на расстоянии 10/5 600 м
[Cb cap Ac As Cs]
+28.5 +23.4 74 +39 +39 очень
душно
1007.3 1002.1 +35.8
15 15.05 ЮВ 3 10 км {гроза, дождь} 6/3 600 м
[Sc Ac lent Cs]
+25.7 +24.7 94 +36 +36 очень
душно
1008.0 1002.8 4
18 15.05 ЮВ 3 10 км {гроза, дождь} 8/3 600 м
[Sc Ac lent Cs]
+25.5 +24.8 96 +36 +36 очень
душно
1007.3 1002.0 4
21 15.05 штиль 0 10 км 6/3 600 м
[Sc Cs]
+25.0 +24.4 96 +35 +35 очень
душно
1007.4 1002.2
00 16.05 ЮВ 2 10 км 3/0
[Cs]
+26.1 +25.7 98 +38 +40 очень
душно
1008.8 1003.5 +24.8 4
03 16.05 В 4 10 км 3/1 600 м
[Sc Cs]
+31.5 +24.2 65 +43 +53 опасность
перегрева
1009.8 1004.7
06 16.05 ЮЗ 6 10 км 3/3 600 м
[Sc Cs]
+34.5 +23.8 54 +46 +52 опасность
перегрева
1007.4 1002.3
09 16.05 Ю 4 10 км 6/1 600 м
[Sc Cs]
+36.8 +22.7 44 +46 +50 опасность
перегрева
1004.1 999.1
12 16.05 Ю 2 10 км 8/1 600 м
[Sc Ac lent Cs]
+33.3 +25.1 62 +47 +47 опасность
перегрева
1005.3 1000.2 +37.0
15 16.05 Ю 6 10 км 8/3 600 м
[Sc Ac lent Cs]
+30.8 +25.4 73 +45 +45 опасность
перегрева
1008.1 1002.9
18 16.05 ЮВ 2 10 км 6/1 600 м
[Sc Ac lent Cs]
+28.6 +24.6 79 +41 +41 опасность
перегрева
1006.7 1001.5
21 16.05 штиль 0 7000 м дымка 8/3 600 м
[Sc Ac lent Cs]
+28.0 +24.8 83 +40 +40 очень
душно
1007.4 1002.2
00 17.05 Ю 4 7000 м дымка 8/4 600 м
[Sc Ac lent Cs]
+27.7 +25.0 85 +40 +40 очень
душно
1007.5 1002.2 +26.9
03 17.05 В 5 8000 м мгла 8/3 600 м
[Sc Ac lent Cs]
+32.9 +24.8 63 +46 +50 опасность
перегрева
1007.9 1002.8
06 17.05 Ю 9 8000 м мгла 8/3 600 м
[Cu Sc Ac lent Cs]
+35.8 +24.2 51 +48 +49 опасность
перегрева
1005.8 1000.7
09 17.05 Ю 3 10 км 4/3 600 м
[Cu med, cong Cs]
+37.0 +24.3 48 +49 +53 опасность
перегрева
1002.9 997.9
12 17.05 штиль 0 10 км 3/3 600 м
[Sc Cs]
+34.0 +25.3 61 +48 +48 опасность
перегрева
1003.1 998.1 +37.8
15 17.05 штиль 0 10 км 4/3 600 м
[Sc Cs]
+31.0 +25.4 72 +45 +45 опасность
перегрева
1005.3 1000.2
18 17.05 Ю 3 10 км 4/3 600 м
[Sc Cs]
+29.4 +25.6 80 +43 +43 опасность
перегрева
1004.7 999.5
21 17.05 штиль 0 10 км 3/1 600 м
[Sc Cs]
+28.0 +24.3 80 +39 +39 очень
душно
1004.6 999.4
00 18.05 Ю 5 8000 м дымка 3/1 1000 м
[Sc Cs]
+28.3 +25.3 84 +41 +42 опасность
перегрева
1006.3 1001.1 +27.0
03 18.05 ЮЗ 5 10 км 3/0
[Cs]
+33.0 +23.3 57 +44 +51 опасность
перегрева
1007.4 1002.3
06 18.05 З 7 10 км 3/1 600 м
[Cu hum Cs]
+36.7 +22.2 43 +45 +50 опасность
перегрева
1005.0 1000.0
09 18.05 ЮЗ 5 10 км 3/1 1000 м
[Cu hum Cs]
+37.8 +23.2 43 +47 +51 опасность
перегрева
1002.5 997.4
12 18.05 ЮВ 3 7000 м мгла 3/1 1000 м
[Cu hum Cs]
+35.2 +24.6 54 +48 +48 опасность
перегрева
1002.7 997.7 +38.6
15 18.05 ЮЗ 3 7000 м дымка 3/0
[Cs]
+32.4 +25.8 68 +48 +48 опасность
перегрева
1005.4 1000.2
18 18.05 штиль 0 7000 м дымка 3/1 1000 м
[Sc Cs]
+29.8 +25.1 76 +43 +43 опасность
перегрева
1004.8 999.7
21 18.05 ЮВ 2 7000 м дымка 3/1 600 м
[Sc Cs]
+28.8 +23.7 74 +39 +39 очень
душно
1004.9 999.7
00 19.05 СВ 2 10 км 3/0
[Cs]
+29.0 +24.4 76 +41 +42 опасность
перегрева
1007.3 1002.1 +27.5
03 19.05 З 2 8000 м мгла 3/0
[Cs]
+34.3 +23.2 53 +45 +60 опасность
перегрева
1008.8 1003.7
06 19.05 Ю 6 8000 м мгла 3/0
[Cs]
+37.5 +23.9 46 +49 +57 опасность
перегрева
1006.1 1001.0
09 19.05 Ю 6 10 км 3/1 600 м
[Sc Cs]
+38.1 +22.8 42 +48 +50 опасность
перегрева
1003.5 998.5
12 19.05 штиль 0 10 км 3/0
[Cs]
+35.2 +23.5 51 +46 +46 опасность
перегрева
1003.8 998.7 +39.0
15 19.05 штиль 0 8000 м дымка 3/0
[Cs]
+31.5 +24.4 66 +44 +44 опасность
перегрева
1006.7 1001.5
18 19.05 штиль 0 8000 м дымка 3/0
[Cs]
+30.5 +25.4 74 +44 +44 опасность
перегрева
1006.6 1001.5
21 19.05 Ю 3 8000 м дымка 3/0
[Cs]
+29.5 +24.5 75 +42 +42 опасность
перегрева
1005.6 1000.4
00 20.05 Ю 5 8000 м дымка 3/1 1000 м
[Sc Cs]
+29.5 +24.8 76 +42 +43 опасность
перегрева
1007.5 1002.3 +27.8
03 20.05 ЮЗ 3 10 км 3/1 600 м
[Cu hum Cs]
+34.6 +24.2 55 +47 +58 опасность
перегрева
1008.9 1003.8
06 20.05 ЮЗ 4 10 км 3/1 600 м
[Cu hum Cs]
+38.0 +24.7 47 +51 +63 опасность
перегрева
1006.1 1001.0
09 20.05 ЮЗ 6 10 км 8/1 600 м
[Cu med, cong Ac lent Cs]
+38.5 +22.9 41 +48 +50 опасность
перегрева
1003.0 998.0
12 20.05 ЮЗ 3 8000 м мгла 8/3 1000 м
[Cu med, cong Ac lent Cs]
+35.3 +25.0 55 +49 +49 опасность
перегрева
1003.7 998.7 +39.7
15 20.05 В 3 8000 м дымка 6/1 600 м
[Cu hum Ac lent Cs]
+33.1 +26.1 67 +49 +49 опасность
перегрева
1006.3 1001.2
18 20.05 ЮВ 5 8000 м дымка 3/1 600 м
[Cu med, cong Cs]
+31.7 +25.2 69 +46 +46 опасность
перегрева
1005.9 1000.7
21 20.05 Ю 2 8000 м дымка 3/1 600 м
[Sc Cs]
+30.2 +24.9 73 +43 +43 опасность
перегрева
1006.3 1001.1
00 21.05 ЮВ 3 10 км 3/0
[Cs]
+29.7 +25.2 77 +43 +44 опасность
перегрева
1007.6 1002.4 +28.4
03 21.05 ЮЗ 6 8000 м мгла 6/4 600 м
[Cu med, cong Ac lent Cs]
+33.9 +25.2 61 +48 +51 опасность
перегрева
1008.2 1003.1
06 21.05 З 6 8000 м мгла 8/4 600 м
[Sc Ac lent Cs]
+36.9 +25.2 51 +50 +54 опасность
перегрева
1007.2 1002.1
09 21.05 В 4 8000 м мгла 8/3 600 м
[Cu Sc Ac lent Cs]
+35.0 +25.2 57 +49 +51 опасность
перегрева
1003.5 998.5
12 21.05 ЮВ 5 8000 м дымка 8/3 600 м
[Cu Sc Ac lent Cs]
+33.3 +26.2 66 +49 +49 опасность
перегрева
1004.6 999.5 +37.4

 

Местоположение метеостанции Пхитсанулок (Таиланд): широта 16.78 долгота 100.26 высота над уровнем моря 45 м.

В архиве по умолчанию представлена погода в Пхитсанулоке за последнюю неделю. Архивные данные за месяц целиком и за предыдущие месяцы, начиная с января 2011 года, Вы можете получить, выбрав интересующий диапазон дат из раскрывающегося списка и нажав кнопку "Ввод!".


*Определитесь, кто Вы:
робот инопланетянин человек

Внимание! Время в таблицах - всемирное. Для получения местного времени необходимо прибавить поправку, которая равна 7 ч.

Смотрите также архив погоды в соседних городах и на ближайших метеорологических станциях:

Погода в Пичит Агромете (Таиланд) (39 км)
Погода в Си Самронг Агромете (Таиланд) (60 км)
Погода в Сукхотаи (Таиланд) (61 км)
Погода в Кампхэнгпхете (Таиланд) (85 км)
Погода в Уттарадите (Таиланд) (95 км)
Погода в Пхетчабуне (Таиланд) (103 км)
Погода в Ломсаке (Таиланд) (105 км)
Погода в Накхон Саван (Таиланд) (110 км)
Погода в Таке (Таиланд) (119 км)
Погода в Дои Му Со Агромете (Таиланд) (142 км)

Пояснения к столбцам:

Ветер - указаны скорость ветра в м/с - средняя за 10 мин, порывы в срок и между сроками (в фигурных скобках) и направление, откуда дует ветер: С - северный, СВ - северо-восточный, В - восточный, ЮВ - юго-восточный, Ю - южный, ЮЗ - юго-западный, З - западный, СЗ - северо-западный.
Видимость - горизонтальная дальность видимости в метрах или километрах. При видимости от 1 до 10 км при отсутствии осадков обычно наблюдается дымка, при ухудшении видимости до 1 км и менее - туман. В сухую погоду видимость может ухудшаться дымом, пылью или мглою.
Явления - указаны атмосферные явления, наблюдавшиеся в срок или в последний час перед сроком; фигурными скобками обозначены явления, наблюдавшиеся между сроками (за 1-3 часа до срока); квадратными скобками обозначены град или гололедные отложения с указанием их диаметра в мм.
Облачность - указаны через наклонную черту общая и нижняя облачность в баллах и высота нижней границы облаков в метрах; квадратными скобками обозначены формы облаков: Ci - перистые, Cs - перисто-слоистые, Cc - перисто-кучевые, Ac - высококучевые, As - высокослоистые, Sc - слоисто-кучевые, Ns - слоисто-дождевые, Cu - кучевые, Cb - кучево-дождевые. Подробнее классификацию облаков см. в Атласе облаков (PDF).
T - Температура воздуха - температура, измеренная на высоте 2 м над землей.
Td - Температура точки росы - температура, при понижении до которой содержащийся в воздухе водяной пар достигнет насыщения.
f - Относительная влажность воздуха - влажноcть воздуха, измеренная на высоте 2 м над землей.
Te - Эффективная температура - температура, которую ощущает одетый по сезону человек в тени. Характеристика душности погоды. При расчете учитывается влияние влажности воздуха и скорости ветра на теплоощущения человека.
Tes - Эффективная температура на солнце - температура, которую ощущает человек, с поправкой на солнечный нагрев. Характеристика знойности погоды. Зависит от высоты солнца над горизонтом, облачности и скорости ветра. Ночью, в пасмурную погоду, а также при ветре 12 м/с и более поправка равна нулю.
P - Атмосферное давление - приведенное к уровню моря атмосферное давление.
Po - Атмосферное давление - измеренное на уровне метеостанции атмосферное давление.
Tmin - Минимальная температура - минимум температуры воздуха на высоте 2 м над землей.
Tmax - Максимальная температура - максимум температуры воздуха на высоте 2 м над землей.
R - Количество осадков - Количество выпавших осадков за период времени, мм. При наведении курсора мыши на число - период времени, за который выпало указанное количество осадков.
R24 - Количество осадков - Количество выпавших осадков за 24 часа, мм.
S - Снежный покров - Высота снежного покрова, см. При наведении курсора мыши на число - состояние снежного покрова и степень покрытия местности в баллах.